Location: ????????
(55.4000°N, 39.1167°E)
Time: 13:42:10
(UTC+00:00)

NOSS 3-1 (A) - Pass Details

Date: 19 May 2025
Orbit: 639 x 1568 km, 63.4° (Epoch: 18 June)

Event Time Altitude Azimuth Distance (km) Brightness Sun altitude
Exits shadow 19:02:50 - 178° (S) 2,343 5.0 -9.2°
Reaches altitude 10° 19:03:21 10° 175° (S) 2,178 4.8 -9.2°
Maximum altitude 19:07:29 28° 117° (ESE) 1,454 4.0 -9.6°
Drops below altitude 10° 19:12:18 10° 61° (ENE) 2,570 5.7 -9.9°
Sets 19:15:25 0° 51° (NE) 3,678 6.7 -10.1°
